Home > Weather > Shiraz > Past weeks

Flag for Iran Weather for the Past 2 Weeks in Shiraz, Iran

Now
32 °F

Sunny.


Feels Like: 32 °F
Forecast: 29 / 60 °F
Wind: No wind

Location: Shiraz Airport

Current Time: Feb 14, 2016 at 8:35:20 AM

Latest Report: Feb 14, 2016 at 7:30 AM


Visibility: 10 mi

Pressure: 30.18 "Hg (24.89 "Hg at 1540m altitude)

Humidity: 80%

Dew point: 27 °F

Location of ShirazLocation

Historic Weather in Shiraz — Graph

°F

Shiraz Temperature Yesterday

Maximum temperature yesterday: 59 °F (at 3:30 PM)
Minimum temperature yesterday: 28 °F (at 5:30 AM)
Average temperature yesterday: 46 °F

High & Low Weather Summary for the Past Weeks

 TemperatureHumidityPressure
High70 °F (Feb 7, 3:00 PM)93% (Feb 8, 6:20 AM)30.45 "Hg (Feb 8, 6:20 AM)
Low25 °F (Jan 30, 6:30 AM)3% (Feb 7, 4:00 PM)29.98 "Hg (Feb 11, 1:30 PM)
Average45 °F44%30.15 "Hg
* Reported Jan 30 6:30 AM — Feb 14 7:00 AM, Shiraz, Weather by CustomWeather, © 2016

Note: Actual official high and low records may vary slightly from our data, if they occured in-between our weather recording intervals... More about our weather records

Advertising

Shiraz Weather History for the Previous 24 Hours

 ConditionsComfort  
Time TempWeatherWind HumidityBarometerVisibility
7:00 AM
Sun, Feb 14
32 °FClear.2 mph80%30.18 "Hg10 mi
6:30 AM32 °FClear.No wind87%30.18 "Hg10 mi
6:00 AM32 °FClear.2 mph87%30.15 "Hg10 mi
5:30 AM34 °FClear.No wind81%30.15 "Hg10 mi
5:00 AM34 °FClear.No wind81%30.15 "Hg10 mi
4:30 AM36 °FClear.No wind75%30.15 "Hg10 mi
4:00 AM36 °FClear.No wind75%30.15 "Hg10 mi
3:30 AM36 °FClear.No wind75%30.15 "Hg10 mi
3:00 AM36 °FClear.No wind75%30.15 "Hg10 mi
2:30 AM39 °FClear.No wind75%30.15 "Hg10 mi
2:00 AM43 °FClear.5 mph57%30.15 "Hg10 mi
1:00 AM45 °FClear.No wind57%30.15 "Hg10 mi
12:30 AM45 °FClear.No wind57%30.15 "Hg10 mi
12:00 AM45 °FClear.No wind57%30.15 "Hg10 mi
11:30 PM
Sat, Feb 13
45 °FClear.No wind57%30.15 "Hg10 mi
11:00 PM43 °FClear.No wind61%30.15 "Hg10 mi
10:30 PM45 °FClear.No wind57%30.15 "Hg10 mi
10:00 PM50 °FClear.5 mph47%30.15 "Hg10 mi
9:30 PM50 °FClear.No wind47%30.15 "Hg10 mi
9:00 PM48 °FClear.No wind50%30.15 "Hg10 mi
8:30 PM46 °FClear.5 mph50%30.12 "Hg10 mi
8:00 PM50 °FClear.No wind40%30.12 "Hg10 mi
7:30 PM50 °FClear.5 mph40%30.09 "Hg10 mi
7:00 PM46 °FClear.No wind43%30.09 "Hg10 mi
6:30 PM50 °FClear.No wind35%30.07 "Hg10 mi
6:00 PM55 °FSunny.5 mph24%30.07 "Hg10 mi
5:30 PM57 °FSunny.5 mph25%30.07 "Hg10 mi
5:00 PM59 °FSunny.5 mph25%30.07 "Hg10 mi
4:30 PM59 °FSunny.5 mph27%30.07 "Hg10 mi
4:00 PM59 °FSunny.5 mph23%30.07 "Hg10 mi
3:30 PM59 °FSunny.5 mph29%30.07 "Hg10 mi
3:00 PM57 °FSunny.5 mph25%30.07 "Hg10 mi
2:30 PM57 °FSunny.5 mph25%30.07 "Hg10 mi
2:00 PM57 °FSunny.7 mph29%30.09 "Hg10 mi
1:30 PM57 °FSunny.5 mph27%30.09 "Hg10 mi
1:00 PM57 °FSunny.5 mph29%30.12 "Hg10 mi
12:30 PM55 °FSunny.5 mph33%30.15 "Hg10 mi
12:00 PM54 °FSunny.5 mph35%30.15 "Hg10 mi
11:30 AM52 °FSunny.5 mph35%30.15 "Hg10 mi
11:00 AM54 °FSunny.No wind38%30.18 "Hg10 mi
10:30 AM50 °FSunny.5 mph43%30.18 "Hg10 mi
10:00 AM48 °FSunny.No wind46%30.18 "Hg10 mi
9:20 AM46 °FSunny.No wind53%30.18 "Hg10 mi
9:00 AM46 °FSunny.No wind53%30.18 "Hg10 mi
8:30 AM45 °FSunny.No wind57%30.18 "Hg10 mi
8:00 AM41 °FSunny.No wind70%30.15 "Hg10 mi
Weather by CustomWeather, © 2016

See weather overviewHow to use our weather pages